{"data":{"norad_id":56047,"epoch":"2026-05-25T05:41:32.335584Z","epoch_age_seconds":44661,"freshness":"FRESH","line1":"1 56047U 23043B   26145.23717981  .00000165  00000+0  39804-3 0  9998","line2":"2 56047  87.9107 233.3303 0001849 106.9764 253.1570 13.16593051155950","mean_motion":13.16593051,"eccentricity":0.0001849,"inclination_deg":87.9107,"raan_deg":233.3303,"arg_perigee_deg":106.9764,"mean_anomaly_deg":253.157,"bstar":0.00039804,"rev_number":15595,"period_min":109.37320373264,"perigee_km":1196.3605098474,"apogee_km":1199.1620770363,"semimajor_km":7575.8982934418,"source":"CELESTRAK","updated_at":"2026-05-25T13:38:22.699764Z"}}